Vorticity
6 6 3 4 5 5 6 7 4 -1 3 6 9 8 8 5 7 6 5 6 5 4 6 7 8 7 7 7 8 8 8 8 9 8 7 8 8 6 5 6 6 6 5
9 10 13 13 14 10 8 7 6 3 7 6 8 5 4 4 6 4 3 4 8 6 7 6 6 6 6 5 5 12 10 8 8 8 9 8 8 8 7 6 5 4 7
10 9 13 10 3 4 6 11 21 3 35 6 52 -7 -32 9 8 22 2 36 20 6 4 2 3 5 5 7 6 3 5 11 11 8 5 7 7 6 6 7 7 5 3
8 8 8 2 11 10 6 9 9 12 5 4 6 33 1 17 10 17 9 3 64 28 6 -1 -2 9 6 3 4 7 3 2 3 8 12 10 7 7 7 8 8 8 7
8 14 5 7 6 6 4 5 12 10 8 10 11 14 9 6 5 9 8 12 8 13 20 37 34 17 28 26 4 4 7 4 5 3 2 4 12 9 8 8 7 6 5
9 6 5 4 6 7 7 11 10 11 12 12 16 10 8 5 4 6 7 8 7 11 10 9 2 6 6 18 32 18 -4 -1 0 8 3 5 3 5 10 9 9 8 9
9 9 8 7 8 8 9 10 10 10 8 6 9 13 13 14 11 9 11 10 13 16 15 14 15 14 8 19 7 21 21 3 3 17 5 17 8 4 3 7 8 7 6
13 10 8 8 9 10 10 11 9 7 17 19 15 16 18 20 14 12 8 9 14 3 5 5 19 10 19 7 7 9 6 21 17 21 16 10 4 20 13 5 8 5 4
15 10 10 8 9 10 12 10 10 19 9 21 24 25 20 20 25 27 22 16 16 22 7 13 18 29 19 5 4 -9 8 16 20 2 17 4 46 36 4 13 16 6 6
9 13 11 10 11 11 11 10 13 11 16 12 13 10 8 9 12 14 10 10 15 10 12 24 31 12 31 -16 82 32 4 23 8 16 18 13 20 20 19 12 2 2 19
10 10 9 11 11 13 11 13 12 17 8 7 8 9 6 7 9 9 9 12 18 17 20 17 23 45 -4 51 -11 -1 29 38 30 25 16 -5 9 10 -2 1 15 2 -1
11 11 10 12 15 11 12 13 14 13 5 5 4 6 5 4 4 5 4 2 -1 2 4 7 10 10 17 11 8 0 6 12 4 39 34 31 14 7 13 11 8 20 14
10 14 11 12 14 10 14 10 11 12 5 3 4 6 6 7 6 6 6 6 6 6 7 6 5 9 11 10 8 10 6 9 12 13 8 25 40 43 40 49 45 45 34
9 14 11 13 11 13 10 10 12 9 8 9 8 5 5 6 5 5 6 9 10 11 11 11 9 6 7 11 7 6 4 3 2 6 -1 4 6 2 2 7 9 1 7
11 10 9 13 10 16 7 16 11 7 7 7 6 5 6 4 4 6 7 15 21 21 20 16 14 13 12 8 10 11 10 8 11 14 7 -5 10 5 4 3 0 5 3
11 10 9 12 10 13 11 8 6 7 6 6 6 6 4 4 7 8 17 30 27 21 18 20 22 24 23 22 19 14 16 16 13 9 9 11 9 1 -3 10 8 7 5
12 10 11 16 14 9 14 6 5 6 6 8 8 6 4 7 10 14 34 16 7 9 9 10 10 10 10 13 15 18 17 14 17 18 17 17 17 14 13 12 14 15 16
13 9 11 16 12 9 14 7 7 4 8 7 6 7 6 13 20 28 17 12 12 6 6 9 10 10 10 10 10 10 11 12 11 11 13 14 14 15 16 15 15 14 14
13 10 17 14 10 14 10 7 5 7 8 6 8 8 12 17 26 18 14 11 10 8 8 10 12 13 13 12 13 13 12 10 9 9 7 4 3 3 3 4 6 7 7
12 18 18 12 13 10 5 5 7 7 6 4 9 12 13 26 19 13 9 8 9 9 8 10 10 10 12 15 16 16 14 13 13 13 13 12 11 9 8 7 6 5 5
18 17 14 10 10 7 5 7 8 6 5 9 12 13 22 23 15 9 7 9 7 7 7 8 8 8 8 9 8 7 7 9 10 13 13 13 14 15 15 15 16 15 13
14 14 11 11 9 5 8 8 6 6 11 13 14 22 22 13 9 9 8 9 9 11 14 13 13 13 14 14 11 10 11 12 12 14 19 21 19 19 20 21 21 21 20
12 10 9 8 6 8 9 5 8 12 13 14 19 19 12 10 8 9 10 11 13 13 12 13 14 15 14 13 14 15 15 15 14 16 15 13 14 12 11 10 10 10 11
11 11 8 7 8 9 4 7 10 13 14 17 16 11 10 9 9 11 13 14 13 12 12 13 13 13 13 13 12 14 16 16 16 18 16 15 14 12 11 12 13 14 15
11 7 7 7 8 5 8 10 12 15 17 19 11 8 8 10 13 11 10 11 11 12 12 13 15 14 12 12 17 18 16 14 17 16 12 11 10 11 14 16 13 13 14
9 8 7 8 6 7 8 11 18 18 17 11 7 9 8 9 9 11 13 13 14 14 12 14 15 12 11 16 15 14 14 16 18 15 12 9 13 17 10 12 16 12 6
Height
5928 5926 5924 5922 5921 5919 5917 5914 5911 5908 5905 5904 5902 5899 5897 5893 5890 5886 5887 5884 5882 5880 5879 5878 5877 5877 5875 5875 5875 5874 5874 5874 5875 5875 5876 5876 5876 5876 5876 5876 5877 5878 5878
5927 5925 5923 5921 5918 5916 5913 5910 5901 5895 5893 5890 5888 5885 5882 5883 5881 5878 5876 5876 5874 5874 5873 5872 5871 5871 5870 5868 5866 5867 5866 5866 5866 5867 5868 5869 5868 5868 5869 5869 5869 5869 5870
5927 5923 5920 5918 5914 5911 5908 5903 5898 5887 5878 5873 5872 5862 5851 5866 5868 5867 5864 5867 5864 5862 5863 5863 5862 5862 5860 5860 5859 5858 5856 5856 5856 5856 5858 5859 5860 5861 5860 5860 5860 5861 5862
5926 5922 5920 5917 5914 5910 5905 5901 5896 5890 5887 5880 5873 5872 5858 5863 5861 5860 5861 5855 5851 5854 5854 5853 5851 5851 5850 5848 5848 5849 5848 5848 5847 5845 5846 5847 5847 5849 5849 5849 5850 5850 5853
5922 5918 5916 5912 5908 5906 5900 5894 5892 5887 5884 5878 5871 5866 5861 5861 5858 5855 5853 5851 5847 5846 5845 5844 5841 5840 5837 5836 5836 5838 5836 5836 5837 5837 5836 5836 5837 5836 5837 5838 5838 5838 5840
5917 5913 5909 5906 5902 5897 5893 5888 5882 5880 5876 5873 5869 5865 5860 5855 5850 5849 5846 5842 5838 5838 5836 5834 5833 5830 5827 5825 5824 5826 5827 5826 5825 5826 5825 5825 5826 5826 5826 5827 5827 5826 5829
5914 5910 5906 5901 5896 5891 5886 5881 5876 5871 5867 5864 5861 5857 5853 5849 5846 5841 5836 5832 5831 5829 5827 5823 5823 5820 5817 5816 5815 5814 5813 5812 5811 5812 5813 5812 5812 5815 5816 5816 5817 5817 5817
5911 5907 5903 5898 5892 5886 5881 5876 5871 5867 5863 5859 5854 5849 5844 5839 5835 5832 5830 5827 5825 5821 5818 5814 5812 5811 5808 5806 5804 5802 5801 5801 5799 5798 5798 5798 5799 5800 5802 5802 5804 5805 5805
5908 5903 5899 5894 5889 5883 5876 5870 5866 5861 5855 5848 5843 5839 5836 5833 5830 5827 5825 5821 5818 5813 5810 5807 5803 5801 5799 5797 5793 5791 5791 5789 5787 5786 5785 5785 5784 5786 5788 5787 5788 5790 5791
5904 5899 5894 5888 5883 5877 5872 5866 5859 5854 5849 5844 5839 5834 5830 5827 5824 5821 5818 5815 5811 5807 5802 5797 5794 5791 5782 5778 5776 5773 5774 5774 5774 5771 5771 5771 5771 5771 5772 5773 5775 5773 5774
5899 5893 5888 5883 5877 5872 5867 5862 5858 5853 5848 5842 5837 5832 5827 5823 5819 5815 5810 5807 5803 5799 5795 5790 5786 5783 5781 5776 5773 5765 5762 5760 5759 5759 5758 5757 5758 5758 5758 5759 5759 5759 5759
5893 5887 5883 5877 5872 5867 5862 5858 5854 5849 5845 5840 5835 5829 5825 5820 5815 5811 5807 5803 5798 5794 5790 5786 5782 5778 5775 5769 5763 5759 5758 5753 5752 5747 5745 5744 5744 5744 5744 5744 5745 5745 5744
5887 5881 5876 5871 5866 5862 5857 5853 5848 5844 5840 5836 5831 5826 5822 5817 5812 5807 5801 5796 5791 5787 5782 5778 5775 5771 5766 5763 5760 5757 5752 5750 5745 5742 5738 5736 5734 5732 5732 5732 5731 5730 5729
5881 5875 5870 5865 5860 5856 5852 5848 5843 5839 5835 5831 5826 5821 5816 5811 5805 5800 5794 5788 5782 5777 5772 5768 5765 5761 5758 5755 5751 5747 5745 5742 5739 5735 5732 5729 5728 5727 5726 5724 5723 5721 5721
5874 5869 5863 5858 5854 5850 5847 5842 5837 5833 5829 5825 5821 5815 5809 5803 5797 5791 5784 5778 5772 5766 5761 5756 5753 5750 5747 5745 5742 5739 5736 5733 5730 5727 5725 5723 5720 5718 5718 5717 5715 5715 5713
5867 5862 5857 5851 5847 5843 5840 5836 5831 5826 5822 5817 5812 5807 5801 5795 5788 5781 5774 5767 5761 5757 5752 5748 5744 5740 5737 5734 5731 5728 5726 5723 5720 5717 5715 5714 5712 5710 5708 5706 5705 5704 5702
5860 5856 5851 5846 5841 5837 5834 5830 5826 5819 5814 5809 5805 5798 5792 5785 5778 5772 5765 5760 5755 5751 5747 5743 5739 5734 5730 5726 5723 5719 5716 5713 5710 5708 5705 5702 5700 5697 5695 5693 5691 5690 5689
5854 5848 5843 5838 5834 5831 5826 5823 5818 5813 5807 5800 5795 5789 5782 5775 5767 5761 5756 5751 5748 5743 5740 5736 5732 5727 5722 5718 5714 5710 5706 5703 5699 5696 5694 5691 5689 5686 5683 5681 5678 5676 5674
5845 5840 5835 5830 5826 5823 5819 5815 5811 5805 5799 5792 5786 5779 5773 5765 5758 5753 5749 5745 5740 5736 5731 5726 5721 5717 5713 5709 5705 5701 5697 5693 5690 5686 5682 5679 5676 5673 5671 5668 5666 5664 5662
5836 5831 5827 5823 5820 5817 5812 5808 5803 5796 5791 5786 5779 5770 5763 5756 5750 5745 5741 5737 5733 5728 5723 5719 5714 5709 5705 5701 5696 5691 5685 5681 5677 5674 5670 5667 5663 5660 5657 5655 5652 5649 5647
5827 5824 5820 5817 5814 5809 5805 5800 5795 5789 5783 5776 5769 5761 5755 5749 5743 5739 5734 5730 5724 5718 5713 5708 5703 5699 5695 5691 5686 5680 5676 5671 5667 5662 5657 5653 5650 5647 5643 5641 5638 5634 5632
5820 5816 5813 5810 5807 5802 5797 5792 5786 5780 5774 5767 5760 5752 5746 5741 5736 5732 5726 5721 5715 5710 5705 5699 5694 5689 5685 5680 5674 5668 5663 5658 5654 5650 5645 5641 5637 5633 5630 5627 5623 5620 5617
5813 5810 5806 5803 5799 5794 5789 5784 5778 5772 5766 5759 5751 5744 5739 5734 5728 5723 5717 5712 5706 5700 5693 5688 5683 5677 5671 5666 5660 5656 5651 5646 5642 5637 5632 5628 5624 5620 5616 5613 5610 5606 5603
5806 5803 5799 5796 5793 5788 5783 5777 5770 5763 5756 5749 5743 5737 5732 5726 5720 5714 5708 5703 5697 5690 5684 5679 5672 5666 5661 5655 5650 5644 5639 5634 5630 5626 5622 5618 5614 5610 5606 5602 5598 5594 5589
5800 5796 5791 5787 5783 5778 5773 5768 5761 5755 5748 5742 5736 5729 5724 5719 5713 5706 5699 5693 5687 5681 5675 5669 5663 5657 5651 5645 5639 5633 5629 5624 5619 5616 5612 5607 5603 5599 5595 5590 5585 5581 5576
5793 5789 5784 5781 5776 5770 5765 5759 5752 5746 5741 5735 5729 5722 5716 5710 5704 5698 5691 5684 5678 5671 5665 5659 5652 5646 5641 5635 5629 5624 5619 5614 5610 5606 5602 5598 5594 5588 5583 5578 5572 5568 5563